[[{"header":{"parameterUnit":"m.s-1","parameterCategory":1,"la1":30.2991,"la2":30.254,"lo1":-89.0895,"lo2":-89.0444,"dy":0.0017,"dx":0.0017,"nx":28,"ny":28,"refTime":"2026-03-05T09:00:00:Z","depth":0,"parameterNumber":2,"parameterNumberName":"U-component_of_WINDS"},"data":[0,0,0,0,0,0,0,0,0,0,0,0,0,0,0,0,0,0,0,0,0,0,0,0,0,0,0,0,0,0,0,0,0,0,0,0,0,0,0,0,0,0,0,0,0,0,0,0,0,0,0,0,0,0,0,0,0,0,-3.1113,-3.1113,0,-3.1115,-3.1115,-3.1115,-3.1057,-3.1055,-3.1053,-3.1052,-3.1054,-3.1055,-3.1057,0,0,0,0,0,0,0,0,0,0,0,0,0,-3.106,-3.1061,-3.1113,-3.1113,-3.1113,-3.1115,-3.1115,-3.1115,-3.1057,-3.1055,-3.1053,-3.1051,-3.1053,-3.1055,-3.1057,0,0,0,0,0,0,0,0,0,0,0,0,0,-3.1074,-3.1061,-3.1113,-3.1084,-3.1082,-3.1115,-3.1115,-3.1115,-3.1057,-3.1055,-3.1053,-3.105,-3.1053,-3.1055,-3.1057,-3.1117,0,0,-3.1064,-3.1065,0,0,0,0,0,0,0,0,-3.1074,-3.1076,-3.1088,-3.1086,-3.1083,-3.1083,-3.1097,-3.1116,-3.1058,-3.1067,-3.1052,-3.1049,-3.1065,-3.1066,-3.1072,-3.1118,-3.1118,-3.1064,-3.1065,-3.1066,-3.1067,0,0,0,0,0,0,0,-3.1073,-3.1076,-3.1114,-3.1089,-3.1086,-3.1071,-3.1071,-3.11,-3.1079,-3.1066,-3.1061,-3.1062,-3.1064,-3.107,-3.1071,-3.1118,-3.1064,-3.1066,-3.1067,-3.1068,-3.1214,-3.1216,0,0,0,0,0,0,-3.1076,-3.1075,-3.1113,-3.1114,-3.1073,-3.1074,-3.1074,-3.1086,-3.1078,-3.1075,-3.1064,-3.106,-3.1067,-3.1069,-3.1071,-3.1141,-3.1066,-3.1068,-3.107,-3.1211,-3.1214,-3.1217,0,0,0,0,0,0,-3.1075,-3.1079,-3.1113,-3.1093,-3.1097,-3.1078,-3.1091,-3.1087,-3.1093,-3.1078,-3.1074,-3.1075,-3.1065,-3.1068,-3.1107,-3.1141,-3.1069,-3.1071,-3.1208,-3.1212,-3.1216,-3.1282,0,0,0,0,0,0,-3.1073,-3.1079,-3.1102,-3.1094,-3.1098,-3.1148,-3.1093,-3.1088,-3.1097,-3.1091,-3.1086,-3.1083,-3.1064,-3.1104,-3.1109,-3.1142,-3.1073,-3.1205,-3.121,-3.1214,-3.1277,-3.1288,-3.1297,0,0,0,0,0,-3.1072,-3.112,-3.1103,-3.1108,-3.1126,-3.1151,-3.1153,-3.1129,-3.11,-3.1122,-3.1113,-3.1083,-3.1137,-3.1108,-3.1113,-3.1148,-3.1203,-3.1209,-3.1214,-3.1272,-3.1286,-3.1297,0,0,0,0,0,0,-3.1132,-3.1119,-3.11,-3.1147,-3.1151,-3.1141,-3.1168,-3.1144,-3.1156,-3.1149,-3.112,-3.112,-3.1163,-3.116,-3.1128,-3.1207,-3.1164,-3.1171,-3.1207,-3.1219,-3.1229,-3.1228,-3.1075,0,0,0,0,0,-3.1151,-3.1172,-3.116,-3.1203,-3.1206,-3.1187,-3.1197,-3.1179,-3.1181,-3.1182,-3.1175,-3.1178,-3.1196,-3.1208,-3.1223,-3.1277,-3.1275,-3.1304,-3.1314,-3.1322,-3.1328,-3.1357,-3.1369,-3.1236,-3.1236,-3.1235,0,0,-3.119,-3.1185,-3.12,-3.1215,-3.1215,-3.1238,-3.1188,-3.1214,-3.1231,-3.1186,-3.1221,-3.1217,-3.1219,-3.1265,-3.1285,-3.1264,-3.1365,-3.133,-3.1336,-3.1338,-3.1364,-3.1376,-3.1388,-3.1239,-3.1239,-3.1238,0,0,-3.1272,-3.1271,-3.1307,-3.1309,-3.131,-3.1298,-3.1307,-3.1301,-3.1296,-3.1332,-3.1299,-3.1319,-3.1349,-3.1352,-3.1357,-3.1443,-3.1416,-3.1449,-3.1501,-3.153,-3.154,-3.1549,-3.1579,-3.1591,-3.1456,-3.1456,-3.1456,0,-3.132,-3.1353,-3.1329,-3.1357,-3.1365,-3.1326,-3.1362,-3.1365,-3.1372,-3.1378,-3.1354,-3.1392,-3.1391,-3.1437,-3.1459,-3.1465,-3.1474,-3.1448,-3.1541,-3.155,-3.1558,-3.1586,-3.1598,-3.146,-3.1459,-3.1459,-3.1458,0,-3.1412,-3.1435,-3.1464,-3.1472,-3.1483,-3.1515,-3.1496,-3.1511,-3.1493,-3.1483,-3.152,-3.1518,-3.1532,-3.1542,-3.1524,-3.1587,-3.1573,-3.1546,-3.1502,-3.1575,-3.1601,-3.1612,-3.1465,-3.1464,-3.1463,-3.1462,0,0,-3.1529,-3.1525,-3.1536,-3.1539,-3.1539,-3.1556,-3.1588,-3.1602,-3.1615,-3.1621,-3.1646,-3.1675,-3.1649,-3.1656,-3.1638,-3.1664,-3.1731,-3.1633,-3.1632,-3.165,-3.1799,-3.1819,-3.1832,-3.1715,-3.1716,-3.1718,-3.1799,0,-3.1609,-3.1661,-3.1641,-3.1695,-3.1717,-3.1682,-3.1709,-3.1712,-3.1705,-3.1722,-3.1714,-3.1734,-3.1699,-3.1703,-3.1726,-3.1718,-3.1761,-3.1712,-3.1737,-3.1738,-3.1736,-3.1845,-3.1866,-3.1942,-3.1809,-3.1811,-3.1812,0,-3.1707,-3.1718,-3.1775,-3.1772,-3.178,-3.1805,-3.1816,-3.1834,-3.1837,-3.183,-3.1838,-3.1816,-3.1847,-3.1806,-3.1848,-3.1815,-3.1825,-3.1822,-3.1825,-3.1825,-3.1778,-3.1847,-3.1966,-3.1977,-3.1828,-3.1827,-3.1825,0,-3.1786,-3.1815,-3.1853,-3.1857,-3.1855,-3.1873,-3.1873,-3.1874,-3.1884,-3.1895,-3.1901,-3.1916,-3.1923,-3.1935,-3.1918,-3.189,-3.1963,-3.192,-3.1957,-3.1958,-3.1972,-3.1971,-3.2093,-3.1981,-3.1981,-3.1981,-3.1981,0,-3.1876,-3.1911,-3.1888,-3.1911,-3.1951,-3.1928,-3.1968,-3.1964,-3.1966,-3.1987,-3.1959,-3.198,-3.1956,-3.1975,-3.1962,-3.1999,-3.2003,-3.1998,-3.1993,-3.1999,-3.2,-3.2003,-3.1997,-3.1984,-3.1983,-3.1983,-3.1982,0,-3.1969,-3.1956,-3.1994,-3.199,-3.1989,-3.2018,-3.2014,-3.2035,-3.2027,-3.2055,-3.206,-3.2047,-3.2068,-3.2052,-3.2073,-3.2064,-3.2113,-3.2102,-3.2111,-3.2108,-3.2146,-3.2142,-3.2273,-3.2288,-3.2168,-3.2169,-3.217,0,-3.2026,-3.2053,-3.2052,-3.2064,-3.2066,-3.2087,-3.2098,-3.2078,-3.209,-3.2097,-3.2117,-3.2136,-3.215,-3.2185,-3.2177,-3.2193,-3.2182,-3.2227,-3.2184,-3.2189,-3.2181,-3.2179,-3.2181,-3.2235,-3.2236,-3.2237,-3.2238,0,-3.2129,-3.2121,-3.2137,-3.2152,-3.2166,-3.2176,-3.2184,-3.2196,-3.2176,-3.2191,-3.2213,-3.2224,-3.2246,-3.2265,-3.2278,-3.2278,-3.2255,-3.2252,-3.2261,-3.2267,-3.2271,-3.2268,-3.2133,-3.2249,-3.2248,-3.2247,-3.2246,-3.2246,-3.2205,-3.2227,-3.223,-3.2249,-3.2254,-3.2262,-3.2282,-3.2277,-3.2294,-3.231,-3.2298,-3.2324,-3.2328,-3.2343,-3.2347,-3.2367,-3.2348,-3.2362,-3.2365,-3.2368,-3.2373,-3.2269,-3.2369,-3.2369,-3.2369,-3.2368,-3.2368,0,-3.2305,-3.2305,-3.2324,-3.2336,-3.2352,-3.233,-3.2338,-3.2353,-3.2376,-3.2381,-3.2396,-3.2421,-3.244,-3.2435,-3.2451,-3.2469,-3.2458,-3.2474,-3.2471,-3.2471,-3.2389,-3.2379,-3.2481,-3.2481,-3.2481,-3.2481,-3.2481,-3.2481,-3.2358,-3.2395,-3.2388,-3.2427,-3.2427,-3.2452,-3.2459,-3.2467,-3.2471,-3.25,-3.2516,-3.2513,-3.2514,-3.2531,-3.2548,-3.2546,-3.2553,-3.2572,-3.2566,-3.2488,-3.2477,-3.2466,-3.2457,-3.2574,-3.2574,-3.2646,-3.2647,-3.2647]},{"header":{"parameterUnit":"m.s-1","parameterCategory":1,"la1":30.2991,"la2":30.254,"lo1":-89.0895,"lo2":-89.0444,"dy":0.0017,"dx":0.0017,"nx":28,"ny":28,"refTime":"2026-03-05T09:00:00:Z","depth":0,"parameterNumber":3,"parameterNumberName":"V-component_of_WINDS"},"data":[0,0,0,0,0,0,0,0,0,0,0,0,0,0,0,0,0,0,0,0,0,0,0,0,0,0,0,0,0,0,0,0,0,0,0,0,0,0,0,0,0,0,0,0,0,0,0,0,0,0,0,0,0,0,0,0,0,0,1.8096,1.8096,0,1.8121,1.8121,1.8122,1.8133,1.8133,1.8133,1.8133,1.8158,1.8159,1.816,0,0,0,0,0,0,0,0,0,0,0,0,0,1.8059,1.8059,1.8096,1.8096,1.8096,1.8121,1.8121,1.8122,1.8133,1.8133,1.8133,1.8133,1.8158,1.8159,1.816,0,0,0,0,0,0,0,0,0,0,0,0,0,1.8078,1.8059,1.8096,1.8105,1.8106,1.8121,1.8121,1.8122,1.8133,1.8133,1.8133,1.8133,1.8158,1.8159,1.816,1.8167,0,0,1.8163,1.8163,0,0,0,0,0,0,0,0,1.8077,1.808,1.8103,1.8104,1.8106,1.8124,1.8118,1.8137,1.8133,1.8123,1.8133,1.8133,1.8147,1.8149,1.8154,1.8168,1.8169,1.8163,1.8164,1.8164,1.8164,0,0,0,0,0,0,0,1.8076,1.8079,1.8106,1.8104,1.8105,1.8108,1.8111,1.8121,1.8135,1.8124,1.8125,1.8127,1.8147,1.8152,1.8154,1.817,1.8163,1.8164,1.8165,1.8165,1.8195,1.8195,0,0,0,0,0,0,1.8073,1.8077,1.8105,1.8106,1.8091,1.8109,1.8112,1.8118,1.8135,1.8137,1.8127,1.8128,1.8151,1.8153,1.8155,1.8166,1.8164,1.8165,1.8166,1.8194,1.8195,1.8195,0,0,0,0,0,0,1.8072,1.8075,1.8104,1.8092,1.8096,1.811,1.8116,1.8119,1.8124,1.8137,1.814,1.813,1.8151,1.8154,1.8165,1.8167,1.8166,1.8166,1.8194,1.8194,1.8195,1.8188,0,0,0,0,0,0,1.8071,1.8075,1.8077,1.8092,1.8097,1.8112,1.8116,1.8119,1.8125,1.8126,1.8141,1.8143,1.8151,1.8163,1.8166,1.8169,1.8167,1.8194,1.8194,1.8195,1.8188,1.8188,1.8188,0,0,0,0,0,1.807,1.8073,1.8077,1.808,1.81,1.8112,1.8115,1.8124,1.8126,1.8128,1.8138,1.8142,1.8167,1.8164,1.8167,1.8171,1.8194,1.8194,1.8195,1.8188,1.8188,1.8188,0,0,0,0,0,0,1.8057,1.8075,1.808,1.8088,1.8099,1.8114,1.8118,1.8124,1.8134,1.8134,1.8145,1.8148,1.8159,1.8166,1.8162,1.818,1.8181,1.8182,1.8175,1.8175,1.8175,1.8173,1.8168,0,0,0,0,0,1.8055,1.8064,1.8079,1.8086,1.8091,1.8104,1.8109,1.8116,1.8127,1.8132,1.8142,1.8152,1.8163,1.8169,1.8179,1.8189,1.8194,1.8194,1.8194,1.8194,1.8194,1.8203,1.8203,1.8196,1.8196,1.8196,0,0,1.8051,1.8063,1.8067,1.8084,1.8092,1.8102,1.8107,1.8116,1.8124,1.8133,1.8144,1.8153,1.8166,1.8177,1.8182,1.8183,1.8198,1.8194,1.8194,1.8195,1.8203,1.8204,1.8204,1.8196,1.8196,1.8196,0,0,1.805,1.8059,1.8066,1.8075,1.809,1.8099,1.81,1.8116,1.8122,1.8134,1.8142,1.8151,1.8168,1.8178,1.8185,1.8191,1.8196,1.8194,1.8194,1.8202,1.8202,1.8203,1.8207,1.8208,1.8195,1.8195,1.8195,0,1.8043,1.8057,1.8069,1.8078,1.8086,1.8097,1.8105,1.8114,1.813,1.8136,1.8136,1.816,1.8169,1.8184,1.8186,1.8191,1.8195,1.8192,1.8201,1.8202,1.8203,1.8207,1.8208,1.8195,1.8195,1.8195,1.8195,0,1.805,1.806,1.8064,1.8081,1.809,1.8098,1.8112,1.8119,1.8126,1.8136,1.8149,1.8161,1.8175,1.8179,1.8185,1.8196,1.8196,1.8199,1.82,1.8203,1.8207,1.8208,1.8194,1.8194,1.8194,1.8194,0,0,1.8038,1.8064,1.8065,1.8075,1.8093,1.8101,1.8111,1.8126,1.8133,1.8145,1.8155,1.817,1.8174,1.8183,1.819,1.8197,1.8204,1.82,1.82,1.8201,1.8219,1.8217,1.8218,1.8208,1.8208,1.8208,1.8218,0,1.804,1.8059,1.8071,1.8085,1.8096,1.8108,1.8117,1.813,1.814,1.8151,1.8162,1.8173,1.8177,1.8182,1.819,1.8201,1.8207,1.8201,1.8218,1.8218,1.8214,1.822,1.8217,1.8225,1.8219,1.8219,1.822,0,1.8043,1.8056,1.8072,1.8092,1.8097,1.8105,1.8121,1.8131,1.8147,1.8154,1.8165,1.8173,1.8186,1.8187,1.8206,1.8201,1.8209,1.8216,1.8217,1.8219,1.8219,1.8222,1.8228,1.8229,1.8222,1.8222,1.8221,0,1.8035,1.8057,1.807,1.8077,1.81,1.8106,1.8115,1.8131,1.814,1.8154,1.8161,1.8176,1.8184,1.8197,1.821,1.8209,1.8228,1.8229,1.8235,1.8235,1.8238,1.8238,1.8246,1.8243,1.8243,1.8243,1.8243,0,1.8035,1.8045,1.8067,1.8075,1.8087,1.8101,1.8113,1.8124,1.8138,1.8149,1.8161,1.8171,1.8187,1.82,1.8211,1.8226,1.8229,1.8236,1.8239,1.8235,1.8235,1.8241,1.8241,1.8243,1.8243,1.8243,1.8243,0,1.8027,1.8042,1.8058,1.8079,1.8085,1.8093,1.8112,1.8121,1.8132,1.8147,1.8151,1.8169,1.8185,1.82,1.822,1.8228,1.8244,1.8247,1.8239,1.824,1.8246,1.8245,1.8258,1.8261,1.8255,1.8255,1.8255,0,1.8026,1.8034,1.8058,1.8066,1.8076,1.809,1.81,1.8116,1.8126,1.8146,1.8153,1.8171,1.8185,1.8211,1.8226,1.8243,1.8247,1.825,1.8249,1.8247,1.8248,1.8248,1.825,1.825,1.825,1.825,1.825,0,1.8024,1.8032,1.8046,1.8064,1.8076,1.809,1.8105,1.8112,1.813,1.8142,1.8159,1.817,1.8193,1.8211,1.823,1.8241,1.8249,1.8251,1.8253,1.8249,1.8245,1.8249,1.8239,1.825,1.825,1.825,1.825,1.825,1.802,1.8029,1.8048,1.8064,1.8077,1.8092,1.8102,1.8116,1.8131,1.8151,1.816,1.8178,1.8196,1.8223,1.8235,1.825,1.8251,1.8254,1.8255,1.8256,1.8256,1.8243,1.8253,1.8253,1.8253,1.8253,1.8253,0,1.8019,1.8033,1.8048,1.8069,1.8083,1.809,1.8108,1.8119,1.8135,1.8151,1.8166,1.8188,1.8206,1.8224,1.8243,1.8252,1.8256,1.8257,1.8256,1.8259,1.8253,1.8249,1.8253,1.8253,1.8253,1.8253,1.8253,1.8253,1.802,1.8036,1.8047,1.8071,1.8084,1.8103,1.8112,1.8126,1.814,1.8164,1.8179,1.8191,1.8209,1.8231,1.8248,1.8253,1.826,1.826,1.8266,1.8259,1.8259,1.8259,1.8256,1.8261,1.8261,1.8271,1.8271,1.8271]}]]